Year,Month,Day,Hour,Minute,Value (Times are PST for windspeed in km/hr)
2010,01,20,00,02,4.60
2010,01,20,00,03,6.60
2010,01,20,00,04,5.60
2010,01,20,00,05,4.50
2010,01,20,00,06,8.80
2010,01,20,00,07,6.20
2010,01,20,00,08,5.60
2010,01,20,00,09,7.50
2010,01,20,00,10,4.10
2010,01,20,00,11,2.70
2010,01,20,00,12,5.70
2010,01,20,00,13,5.50
2010,01,20,00,14,4.20
2010,01,20,00,15,6.60
2010,01,20,00,16,8.20
2010,01,20,00,17,6.00
2010,01,20,00,18,6.30
2010,01,20,00,19,7.10
2010,01,20,00,20,8.70
2010,01,20,00,21,5.00
2010,01,20,00,22,2.40
2010,01,20,00,23,4.60
2010,01,20,00,24,5.60
2010,01,20,00,25,6.00
2010,01,20,00,26,5.20
2010,01,20,00,27,1.10
2010,01,20,01,02,6.90
2010,01,20,01,03,8.80
2010,01,20,01,04,3.90
2010,01,20,01,05,6.10
2010,01,20,01,06,7.30
2010,01,20,01,07,10.50
2010,01,20,01,08,9.60
2010,01,20,01,09,6.10
2010,01,20,01,10,7.60
2010,01,20,01,11,7.50
2010,01,20,01,12,7.10
2010,01,20,01,13,7.60
2010,01,20,01,14,9.70
2010,01,20,01,15,6.00
2010,01,20,01,16,10.10
2010,01,20,01,17,5.60
2010,01,20,01,18,4.40
2010,01,20,01,19,5.80
2010,01,20,01,20,6.90
2010,01,20,01,21,4.70
2010,01,20,01,22,7.20
2010,01,20,01,23,4.80
2010,01,20,01,24,5.00
2010,01,20,01,25,6.40
2010,01,20,01,26,5.00
2010,01,20,01,27,4.80
2010,01,20,01,28,4.80
2010,01,20,01,29,4.70
2010,01,20,01,30,3.00
2010,01,20,01,31,4.40
2010,01,20,02,02,2.10
2010,01,20,02,03,1.90
2010,01,20,02,04,0.60
2010,01,20,02,05,2.80
2010,01,20,02,06,0.40
2010,01,20,02,07,1.00
2010,01,20,02,08,1.90
2010,01,20,02,09,0.70
2010,01,20,02,10,3.30
2010,01,20,02,11,0.80
2010,01,20,02,12,0.20
2010,01,20,02,13,0.20
2010,01,20,02,14,1.00
2010,01,20,02,15,1.90
2010,01,20,02,16,1.30
2010,01,20,02,17,1.30
2010,01,20,02,18,0.30
2010,01,20,02,19,2.60
2010,01,20,02,20,0.90
2010,01,20,02,21,2.60
2010,01,20,02,22,5.10
2010,01,20,02,23,3.00
2010,01,20,02,24,3.50
2010,01,20,02,25,2.50
2010,01,20,02,26,4.80
2010,01,20,02,27,3.10
2010,01,20,02,28,1.00
2010,01,20,02,29,2.30
2010,01,20,02,30,1.90
2010,01,20,02,31,2.40
2010,01,20,02,32,1.30
2010,01,20,02,33,2.70
2010,01,20,02,34,1.90
2010,01,20,02,35,0.00
2010,01,20,02,36,1.40
2010,01,20,02,37,0.00
2010,01,20,02,38,0.90
2010,01,20,02,39,3.10
2010,01,20,02,40,2.40
2010,01,20,02,41,3.90
2010,01,20,02,42,7.10
2010,01,20,02,43,6.20
2010,01,20,02,44,5.30
2010,01,20,02,45,4.00
2010,01,20,02,46,3.90
2010,01,20,02,47,6.80
2010,01,20,02,48,2.30
2010,01,20,02,49,3.10
2010,01,20,02,50,5.10
2010,01,20,02,51,3.80
2010,01,20,02,52,3.20
2010,01,20,02,53,4.30
2010,01,20,02,54,5.00
2010,01,20,02,55,7.60
2010,01,20,02,56,7.10
2010,01,20,02,57,5.60
2010,01,20,02,58,6.10
2010,01,20,02,59,4.30
2010,01,20,03,00,6.20
2010,01,20,03,01,3.80
2010,01,20,03,02,3.90
2010,01,20,03,03,3.00
2010,01,20,03,04,1.40
2010,01,20,03,05,8.00
2010,01,20,03,06,9.40
2010,01,20,03,07,6.50
2010,01,20,03,08,5.90
2010,01,20,03,09,6.30
2010,01,20,03,10,5.20
2010,01,20,03,11,5.00
2010,01,20,03,12,4.00
2010,01,20,03,13,4.30
2010,01,20,03,14,4.90
2010,01,20,03,15,0.70
2010,01,20,03,16,2.90
2010,01,20,03,17,3.90
2010,01,20,03,18,1.70
2010,01,20,03,19,7.50
2010,01,20,03,20,5.80
2010,01,20,03,21,7.40
2010,01,20,03,22,6.20
2010,01,20,03,23,2.00
2010,01,20,03,24,7.00
2010,01,20,03,25,4.00
2010,01,20,03,26,2.90
2010,01,20,03,27,2.90
2010,01,20,03,28,4.60
2010,01,20,03,29,3.20
2010,01,20,03,30,6.80
2010,01,20,03,31,8.90
2010,01,20,03,32,3.50
2010,01,20,03,33,3.90
2010,01,20,03,34,6.40
2010,01,20,03,35,3.50
2010,01,20,03,36,4.50
2010,01,20,03,37,3.50
2010,01,20,03,38,4.70
2010,01,20,03,39,8.40
2010,01,20,03,40,3.80
2010,01,20,03,41,2.30
2010,01,20,03,42,6.60
2010,01,20,03,43,2.20
2010,01,20,03,44,5.60
2010,01,20,03,45,4.30
2010,01,20,03,46,3.40
2010,01,20,03,47,2.40
2010,01,20,03,48,5.00
2010,01,20,03,49,4.70
2010,01,20,03,50,4.00
2010,01,20,03,51,3.90
2010,01,20,03,52,3.80
2010,01,20,03,53,6.90
2010,01,20,03,54,8.90
2010,01,20,03,55,8.60
2010,01,20,03,56,6.20
2010,01,20,03,57,7.70
2010,01,20,03,58,10.20
2010,01,20,03,59,7.50
2010,01,20,04,00,5.50
2010,01,20,04,01,4.70
2010,01,20,04,02,6.70
2010,01,20,04,03,7.30
2010,01,20,04,04,6.40
2010,01,20,04,05,7.10
2010,01,20,04,06,2.30
2010,01,20,04,07,3.10
2010,01,20,04,08,5.30
2010,01,20,04,09,9.10
2010,01,20,04,10,3.30
2010,01,20,04,11,4.00
2010,01,20,04,12,8.60
2010,01,20,04,13,6.00
2010,01,20,04,14,7.60
2010,01,20,04,15,10.00
2010,01,20,04,16,8.60
2010,01,20,04,17,5.70
2010,01,20,04,18,4.20
2010,01,20,04,19,13.00
2010,01,20,04,20,7.00
2010,01,20,04,21,0.40
2010,01,20,04,22,4.70
2010,01,20,04,23,6.60
2010,01,20,04,24,6.10
2010,01,20,04,25,5.30
2010,01,20,04,26,4.80
2010,01,20,04,27,4.00
2010,01,20,04,28,7.10
2010,01,20,04,29,5.20
2010,01,20,04,30,2.80
2010,01,20,04,31,4.10
2010,01,20,04,32,6.70
2010,01,20,04,33,7.70
2010,01,20,04,34,6.90
2010,01,20,04,35,6.80
2010,01,20,04,36,8.00
2010,01,20,04,37,3.50
2010,01,20,04,38,5.20
2010,01,20,04,39,6.60
2010,01,20,04,40,8.90
2010,01,20,04,41,5.40
2010,01,20,04,42,5.60
2010,01,20,04,43,2.60
2010,01,20,05,02,5.60
2010,01,20,05,03,4.60
2010,01,20,05,04,8.60
2010,01,20,05,05,6.00
2010,01,20,05,06,9.70
2010,01,20,05,07,7.10
2010,01,20,05,08,10.30
2010,01,20,05,09,10.50
2010,01,20,05,10,7.20
2010,01,20,05,11,8.80
2010,01,20,05,12,7.00
2010,01,20,05,13,10.80
2010,01,20,05,14,7.60
2010,01,20,05,15,10.10
2010,01,20,05,16,6.70
2010,01,20,05,17,4.70
2010,01,20,05,18,9.30
2010,01,20,05,19,4.40
2010,01,20,05,20,8.00
2010,01,20,05,21,7.80
2010,01,20,05,22,9.80
2010,01,20,05,23,10.30
2010,01,20,05,24,7.40
2010,01,20,05,25,10.40
2010,01,20,05,26,10.80
2010,01,20,05,27,5.10
2010,01,20,05,28,7.50
2010,01,20,05,29,8.20
2010,01,20,05,30,15.50
2010,01,20,05,31,12.60
2010,01,20,05,32,8.60
2010,01,20,05,33,7.70
2010,01,20,05,34,7.50
2010,01,20,05,35,6.40
2010,01,20,05,36,10.60
2010,01,20,05,37,11.40
2010,01,20,05,38,11.20
2010,01,20,05,39,6.40
2010,01,20,05,40,9.80
2010,01,20,05,41,9.30
2010,01,20,05,42,6.00
2010,01,20,05,43,11.50
2010,01,20,05,44,7.10
2010,01,20,05,45,8.50
2010,01,20,05,46,10.10
2010,01,20,05,47,7.50
2010,01,20,05,48,5.60
2010,01,20,05,49,11.60
2010,01,20,05,50,7.60
2010,01,20,05,51,10.90
2010,01,20,05,52,11.00
2010,01,20,05,53,8.20
2010,01,20,05,54,10.20
2010,01,20,05,55,6.70
2010,01,20,05,56,7.60
2010,01,20,05,57,8.90
2010,01,20,05,58,6.50
2010,01,20,05,59,10.80
2010,01,20,06,00,9.40
2010,01,20,06,01,8.90
2010,01,20,06,02,11.20
2010,01,20,06,03,10.30
2010,01,20,06,04,6.40
2010,01,20,06,05,7.00
2010,01,20,06,06,10.80
2010,01,20,06,07,11.50
2010,01,20,06,08,12.10
2010,01,20,06,09,10.50
2010,01,20,06,10,12.50
2010,01,20,06,11,12.50
2010,01,20,06,12,8.50
2010,01,20,06,13,16.00
2010,01,20,06,14,11.90
2010,01,20,06,15,8.60
2010,01,20,06,16,9.70
2010,01,20,06,17,10.90
2010,01,20,06,18,13.00
2010,01,20,06,19,12.50
2010,01,20,06,20,14.20
2010,01,20,06,21,12.60
2010,01,20,06,22,10.00
2010,01,20,06,23,13.90
2010,01,20,06,24,11.40
2010,01,20,06,25,11.90
2010,01,20,06,26,9.30
2010,01,20,06,27,11.00
2010,01,20,06,28,12.40
2010,01,20,06,29,8.90
2010,01,20,06,30,6.90
2010,01,20,06,31,7.00
2010,01,20,06,32,10.00
2010,01,20,06,33,12.20
2010,01,20,06,34,11.60
2010,01,20,06,35,12.60
2010,01,20,06,36,9.30
2010,01,20,06,37,8.70
2010,01,20,06,38,12.10
2010,01,20,06,39,7.20
2010,01,20,06,40,8.90
2010,01,20,06,41,8.10
2010,01,20,06,42,10.10
2010,01,20,06,43,7.50
2010,01,20,06,44,7.30
2010,01,20,06,45,5.70
2010,01,20,06,46,5.60
2010,01,20,06,47,15.90
2010,01,20,06,48,8.50
2010,01,20,06,49,9.60
2010,01,20,06,50,8.50
2010,01,20,06,51,7.50
2010,01,20,06,52,5.00
2010,01,20,06,53,11.40
2010,01,20,06,54,5.30
2010,01,20,06,55,8.00
2010,01,20,06,56,8.80
2010,01,20,06,57,10.10
2010,01,20,06,58,10.90
2010,01,20,06,59,8.80
2010,01,20,07,00,6.70
2010,01,20,07,01,8.50
2010,01,20,07,02,8.30
2010,01,20,07,03,7.30
2010,01,20,07,04,10.50
2010,01,20,07,05,10.40
2010,01,20,07,06,10.40
2010,01,20,07,07,6.10
2010,01,20,07,08,9.20
2010,01,20,07,09,7.40
2010,01,20,07,10,9.10
2010,01,20,07,11,10.00
2010,01,20,07,12,6.30
2010,01,20,07,13,6.40
2010,01,20,07,14,6.70
2010,01,20,07,15,4.80
2010,01,20,07,16,5.20
2010,01,20,07,17,7.80
2010,01,20,07,18,8.00
2010,01,20,07,19,7.30
2010,01,20,07,20,7.70
2010,01,20,07,21,4.30
2010,01,20,07,22,5.00
2010,01,20,07,23,6.70
2010,01,20,07,24,4.50
2010,01,20,07,25,2.60
2010,01,20,07,26,6.10
2010,01,20,07,27,6.20
2010,01,20,07,28,8.20
2010,01,20,07,29,6.50
2010,01,20,07,30,4.00
2010,01,20,07,31,7.40
2010,01,20,07,32,5.30
2010,01,20,07,33,7.20
2010,01,20,07,34,6.00
2010,01,20,07,35,5.50
2010,01,20,07,36,3.50
2010,01,20,07,37,1.40
2010,01,20,07,38,4.20
2010,01,20,07,39,1.30
2010,01,20,07,40,3.40
2010,01,20,07,41,4.60
2010,01,20,07,42,3.90
2010,01,20,07,43,1.70
2010,01,20,07,44,1.70
2010,01,20,07,45,1.80
2010,01,20,07,46,4.20
2010,01,20,07,47,6.50
2010,01,20,07,48,8.10
2010,01,20,07,49,6.70
2010,01,20,07,50,4.70
2010,01,20,07,51,5.50
2010,01,20,07,52,3.90
2010,01,20,07,53,6.80
2010,01,20,07,54,8.50
2010,01,20,07,55,4.90
2010,01,20,07,56,6.80
2010,01,20,07,57,2.40
2010,01,20,07,58,4.30
2010,01,20,07,59,6.80
2010,01,20,08,00,8.50
2010,01,20,08,01,5.90
2010,01,20,08,02,3.90
2010,01,20,08,03,3.00
2010,01,20,08,04,7.80
2010,01,20,08,05,9.80
2010,01,20,08,06,10.20
2010,01,20,08,07,10.30
2010,01,20,08,08,8.50
2010,01,20,08,09,4.70
2010,01,20,08,10,9.30
2010,01,20,08,11,5.30
2010,01,20,08,12,4.10
2010,01,20,08,13,5.90
2010,01,20,08,14,10.60
2010,01,20,08,15,8.90
2010,01,20,08,16,8.50
2010,01,20,08,17,8.50
2010,01,20,08,18,12.30
2010,01,20,08,19,11.80
2010,01,20,08,20,7.00
2010,01,20,08,21,7.20
2010,01,20,08,22,6.80
2010,01,20,08,23,8.80
2010,01,20,08,24,7.00
2010,01,20,08,25,12.60
2010,01,20,08,26,6.00
2010,01,20,08,27,11.90
2010,01,20,08,28,7.10
2010,01,20,08,29,5.30
2010,01,20,08,30,7.70
2010,01,20,08,31,8.90
2010,01,20,08,32,4.60
2010,01,20,08,33,5.80
2010,01,20,08,34,6.40
2010,01,20,08,35,6.90
2010,01,20,08,36,6.00
2010,01,20,08,37,2.50
2010,01,20,08,38,8.20
2010,01,20,08,39,8.80
2010,01,20,08,40,10.70
2010,01,20,08,41,11.40
2010,01,20,08,42,6.70
2010,01,20,08,43,4.30
2010,01,20,08,44,4.60
2010,01,20,08,45,4.00
2010,01,20,08,46,3.10
2010,01,20,08,47,8.70
2010,01,20,08,48,7.70
2010,01,20,08,49,10.30
2010,01,20,08,50,9.50
2010,01,20,08,51,7.20
2010,01,20,08,52,8.00
2010,01,20,08,53,7.20
2010,01,20,08,54,10.00
2010,01,20,08,55,12.40
2010,01,20,08,56,8.00
2010,01,20,08,57,8.40
2010,01,20,08,58,6.80
2010,01,20,08,59,7.90
2010,01,20,09,02,7.40
2010,01,20,09,03,8.90
2010,01,20,09,04,9.00
2010,01,20,09,05,8.00
2010,01,20,09,06,9.70
2010,01,20,09,07,7.40
2010,01,20,09,08,6.00
2010,01,20,09,09,7.70
2010,01,20,09,10,9.40
2010,01,20,09,11,9.70
2010,01,20,09,12,5.30
2010,01,20,09,13,4.00
2010,01,20,09,14,6.70
2010,01,20,09,15,5.20
2010,01,20,09,16,4.40
2010,01,20,09,17,6.70
2010,01,20,09,18,6.90
2010,01,20,09,19,6.90
2010,01,20,09,20,7.40
2010,01,20,09,21,6.70
2010,01,20,09,22,8.20
2010,01,20,09,23,3.70
2010,01,20,09,24,7.30
2010,01,20,09,25,7.50
2010,01,20,09,26,6.90
2010,01,20,09,27,4.70
2010,01,20,09,28,6.60
2010,01,20,09,29,7.00
2010,01,20,09,30,6.50
2010,01,20,09,31,8.90
2010,01,20,09,32,6.30
2010,01,20,09,33,7.80
2010,01,20,09,34,5.00
2010,01,20,09,35,4.10
2010,01,20,09,36,8.90
2010,01,20,09,37,4.80
2010,01,20,09,38,7.00
2010,01,20,09,39,7.00
2010,01,20,09,40,2.70
2010,01,20,09,41,5.70
2010,01,20,09,42,4.60
2010,01,20,09,43,4.70
2010,01,20,09,44,6.40
2010,01,20,09,45,6.00
2010,01,20,09,46,5.20
2010,01,20,09,47,6.80
2010,01,20,09,48,6.50
2010,01,20,09,49,4.20
2010,01,20,09,50,8.50
2010,01,20,09,51,5.50
2010,01,20,09,52,7.30
2010,01,20,09,53,3.80
2010,01,20,09,54,6.00
2010,01,20,09,55,4.10
2010,01,20,09,56,2.70
2010,01,20,09,57,1.50
2010,01,20,09,58,0.80
2010,01,20,09,59,3.50
2010,01,20,10,00,3.20
2010,01,20,10,01,1.40
2010,01,20,10,02,0.90
2010,01,20,10,03,2.60
2010,01,20,10,04,3.40
2010,01,20,10,05,1.40
2010,01,20,10,06,5.20
2010,01,20,10,07,3.10
2010,01,20,10,08,3.60
2010,01,20,10,09,3.40
2010,01,20,10,10,7.50
2010,01,20,10,11,4.40
2010,01,20,10,12,4.30
2010,01,20,10,13,8.20
2010,01,20,10,14,7.60
2010,01,20,10,15,5.70
2010,01,20,10,16,2.50
2010,01,20,10,17,3.80
2010,01,20,10,18,2.00
2010,01,20,10,19,5.10
2010,01,20,10,20,2.80
2010,01,20,10,21,2.70
2010,01,20,10,22,2.00
2010,01,20,10,23,0.20
2010,01,20,10,24,0.70
2010,01,20,10,25,0.60
2010,01,20,10,26,0.30
2010,01,20,10,27,0.30
2010,01,20,10,28,0.20
2010,01,20,10,29,1.00
2010,01,20,10,30,0.40
2010,01,20,10,31,1.00
2010,01,20,10,32,0.80
2010,01,20,10,33,0.10
2010,01,20,10,34,1.60
2010,01,20,10,35,0.20
2010,01,20,10,36,1.50
2010,01,20,10,37,0.70
2010,01,20,10,38,0.60
2010,01,20,10,39,0.40
2010,01,20,10,40,0.00
2010,01,20,10,41,0.00
2010,01,20,10,42,0.70
2010,01,20,10,43,0.50
2010,01,20,10,44,3.90
2010,01,20,10,45,1.20
2010,01,20,10,46,3.50
2010,01,20,10,47,4.30
2010,01,20,10,48,5.90
2010,01,20,10,49,5.30
2010,01,20,10,50,2.80
2010,01,20,10,51,3.50
2010,01,20,10,52,2.70
2010,01,20,10,53,7.20
2010,01,20,10,54,8.00
2010,01,20,10,55,7.40
2010,01,20,10,56,5.80
2010,01,20,10,57,4.10
2010,01,20,10,58,10.10
2010,01,20,10,59,6.30
2010,01,20,11,00,2.90
2010,01,20,11,01,9.70
2010,01,20,11,02,5.50
2010,01,20,11,03,4.90
2010,01,20,11,04,3.80
2010,01,20,11,05,5.20
2010,01,20,11,06,9.60
2010,01,20,11,07,8.00
2010,01,20,11,08,4.80
2010,01,20,11,09,4.70
2010,01,20,11,10,2.70
2010,01,20,11,11,3.00
2010,01,20,11,12,2.40
2010,01,20,11,13,5.30
2010,01,20,11,14,7.00
2010,01,20,11,15,4.50
2010,01,20,11,16,3.10
2010,01,20,11,17,5.30
2010,01,20,11,18,5.70
2010,01,20,11,19,3.50
2010,01,20,11,20,1.40
2010,01,20,11,21,5.10
2010,01,20,11,22,6.00
2010,01,20,11,23,5.60
2010,01,20,11,24,4.40
2010,01,20,11,25,3.90
2010,01,20,11,26,3.20
2010,01,20,11,27,3.50
2010,01,20,11,28,4.40
2010,01,20,11,29,6.80
2010,01,20,11,30,6.90
2010,01,20,11,31,7.70
2010,01,20,11,32,5.90
2010,01,20,11,33,5.90
2010,01,20,11,34,4.10
2010,01,20,11,35,3.50
2010,01,20,11,36,5.00
2010,01,20,11,37,7.40
2010,01,20,11,38,7.20
2010,01,20,11,39,4.00
2010,01,20,11,40,5.20
2010,01,20,11,41,3.70
2010,01,20,11,42,4.40
2010,01,20,11,43,6.20
2010,01,20,11,44,3.20
2010,01,20,11,45,4.10
2010,01,20,11,46,5.40
2010,01,20,11,47,4.70
2010,01,20,11,48,6.00
2010,01,20,11,49,5.40
2010,01,20,11,50,3.70
2010,01,20,11,51,3.60
2010,01,20,11,52,4.30
2010,01,20,11,53,5.10
2010,01,20,11,54,3.20
2010,01,20,11,55,4.30
2010,01,20,11,56,5.20
2010,01,20,11,57,6.30
2010,01,20,11,58,5.70
2010,01,20,11,59,3.90
2010,01,20,12,00,4.60
2010,01,20,12,01,3.10
2010,01,20,12,02,4.20
2010,01,20,12,03,2.60
2010,01,20,12,04,4.10
2010,01,20,12,05,2.40
2010,01,20,12,06,1.00
2010,01,20,12,07,1.90
2010,01,20,12,08,3.30
2010,01,20,12,09,0.80
2010,01,20,12,10,0.70
2010,01,20,12,11,1.40
2010,01,20,12,12,3.20
2010,01,20,12,13,5.20
2010,01,20,12,14,6.10
2010,01,20,12,15,3.80
2010,01,20,12,16,2.70
2010,01,20,12,17,3.90
2010,01,20,12,18,3.60
2010,01,20,12,19,4.30
2010,01,20,12,20,6.50
2010,01,20,12,21,6.60
2010,01,20,12,22,6.00
2010,01,20,12,23,5.60
2010,01,20,12,24,8.50
2010,01,20,12,25,8.30
2010,01,20,12,26,8.50
2010,01,20,12,27,8.20
2010,01,20,12,28,9.70
2010,01,20,12,29,7.70
2010,01,20,12,30,9.70
2010,01,20,12,31,5.70
2010,01,20,12,32,9.70
2010,01,20,12,33,10.10
2010,01,20,12,34,7.30
2010,01,20,12,35,4.30
2010,01,20,12,36,8.80
2010,01,20,12,37,6.80
2010,01,20,12,38,6.50
2010,01,20,12,39,3.80
2010,01,20,12,40,8.10
2010,01,20,12,41,3.60
2010,01,20,12,42,1.30
2010,01,20,12,43,3.50
2010,01,20,12,44,4.30
2010,01,20,12,45,8.10
2010,01,20,12,46,5.60
2010,01,20,12,47,2.50
2010,01,20,12,48,3.70
2010,01,20,12,49,3.60
2010,01,20,12,50,3.50
2010,01,20,12,51,5.80
2010,01,20,12,52,1.80
2010,01,20,12,53,4.70
2010,01,20,12,54,6.00
2010,01,20,12,55,2.70
2010,01,20,12,56,3.00
2010,01,20,12,57,3.70
2010,01,20,12,58,1.90
2010,01,20,12,59,2.70
2010,01,20,13,00,6.50
2010,01,20,13,01,4.00
2010,01,20,13,02,4.80
2010,01,20,13,03,3.70
2010,01,20,13,04,7.60
2010,01,20,13,05,7.00
2010,01,20,13,06,6.80
2010,01,20,13,07,3.90
2010,01,20,13,08,9.10
2010,01,20,13,09,6.00
2010,01,20,13,10,3.50
2010,01,20,13,11,5.20
2010,01,20,13,12,4.50
2010,01,20,13,13,5.00
2010,01,20,13,14,5.20
2010,01,20,13,15,3.30
2010,01,20,13,16,5.60
2010,01,20,13,17,6.20
2010,01,20,13,18,2.30
2010,01,20,13,19,9.40
2010,01,20,13,20,8.10
2010,01,20,13,21,3.00
2010,01,20,13,22,5.50
2010,01,20,13,23,6.40
2010,01,20,13,24,9.70
2010,01,20,13,25,7.00
2010,01,20,13,26,6.30
2010,01,20,13,27,6.70
2010,01,20,13,28,6.60
2010,01,20,13,29,4.30
2010,01,20,13,30,6.70
2010,01,20,13,31,8.00
2010,01,20,13,32,5.60
2010,01,20,13,33,9.30
2010,01,20,13,34,5.60
2010,01,20,13,35,3.50
2010,01,20,13,36,4.70
2010,01,20,13,37,3.60
2010,01,20,13,38,6.60
2010,01,20,13,39,6.10
2010,01,20,13,40,6.40
2010,01,20,13,41,5.40
2010,01,20,13,42,5.20
2010,01,20,13,43,7.00
2010,01,20,13,44,6.30
2010,01,20,13,45,7.00
2010,01,20,13,46,6.20
2010,01,20,13,47,6.40
2010,01,20,13,48,7.60
2010,01,20,13,49,6.00
2010,01,20,13,50,3.10
2010,01,20,13,51,5.10
2010,01,20,13,52,7.90
2010,01,20,13,53,6.20
2010,01,20,13,54,2.40
2010,01,20,13,55,4.50
2010,01,20,13,56,4.40
2010,01,20,13,57,1.40
2010,01,20,13,58,4.00
2010,01,20,13,59,4.80
2010,01,20,14,00,1.10
2010,01,20,14,01,2.50
2010,01,20,14,02,2.70
2010,01,20,14,03,3.60
2010,01,20,14,04,4.20
2010,01,20,14,05,7.10
2010,01,20,14,06,5.60
2010,01,20,14,07,3.90
2010,01,20,14,08,7.20
2010,01,20,14,09,5.50
2010,01,20,14,10,4.90
2010,01,20,14,11,5.10
2010,01,20,14,12,4.50
2010,01,20,14,13,4.60
2010,01,20,14,14,2.90
2010,01,20,14,15,3.00
2010,01,20,14,16,3.00
2010,01,20,14,17,3.40
2010,01,20,14,18,0.90
2010,01,20,14,19,5.90
2010,01,20,14,20,3.80
2010,01,20,14,21,1.10
2010,01,20,14,22,0.30
2010,01,20,14,23,1.00
2010,01,20,14,24,1.90
2010,01,20,14,25,4.00
2010,01,20,14,26,3.10
2010,01,20,14,27,2.20
2010,01,20,14,28,0.90
2010,01,20,14,29,3.50
2010,01,20,14,30,4.90
2010,01,20,14,31,9.60
2010,01,20,14,32,2.70
2010,01,20,14,33,2.20
2010,01,20,14,34,2.80
2010,01,20,14,35,3.10
2010,01,20,14,36,2.60
2010,01,20,14,37,2.30
2010,01,20,14,38,2.70
2010,01,20,14,39,2.20
2010,01,20,14,40,1.90
2010,01,20,14,41,0.60
2010,01,20,14,42,1.70
2010,01,20,14,43,0.80
2010,01,20,14,44,0.70
2010,01,20,14,45,1.50
2010,01,20,14,46,3.00
2010,01,20,14,47,4.00
2010,01,20,14,48,2.90
2010,01,20,14,49,1.00
2010,01,20,14,50,2.70
2010,01,20,14,51,0.60
2010,01,20,14,52,3.10
2010,01,20,14,53,0.90
2010,01,20,14,54,0.70
2010,01,20,14,55,1.40
2010,01,20,14,56,0.30
2010,01,20,14,57,0.40
2010,01,20,14,58,0.50
2010,01,20,14,59,2.60
2010,01,20,15,00,2.70
2010,01,20,15,01,1.70
2010,01,20,15,02,2.80
2010,01,20,15,03,1.30
2010,01,20,15,04,0.90
2010,01,20,15,05,0.20
2010,01,20,15,06,1.40
2010,01,20,15,07,0.10
2010,01,20,15,08,0.20
2010,01,20,15,09,0.00
2010,01,20,15,10,2.60
2010,01,20,15,11,2.80
2010,01,20,15,12,2.90
2010,01,20,15,13,2.50
2010,01,20,15,14,4.60
2010,01,20,15,15,1.10
2010,01,20,15,16,1.10
2010,01,20,15,17,0.50
2010,01,20,15,18,1.10
2010,01,20,15,19,1.50
2010,01,20,15,20,0.80
2010,01,20,15,21,1.80
2010,01,20,15,22,0.90
2010,01,20,15,23,2.40
2010,01,20,15,24,0.20
2010,01,20,15,25,0.10
2010,01,20,15,26,1.90
2010,01,20,15,27,0.10
2010,01,20,15,28,0.00
2010,01,20,15,29,0.20
2010,01,20,15,30,0.30
2010,01,20,15,31,2.70
2010,01,20,15,32,1.60
2010,01,20,15,33,1.20
2010,01,20,15,34,2.30
2010,01,20,15,35,1.00
2010,01,20,15,36,1.10
2010,01,20,15,37,3.70
2010,01,20,15,38,3.30
2010,01,20,15,39,3.00
2010,01,20,15,40,3.70
2010,01,20,15,41,0.80
2010,01,20,15,42,0.30
2010,01,20,15,43,3.20
2010,01,20,15,44,2.10
2010,01,20,15,45,3.90
2010,01,20,15,46,2.10
2010,01,20,15,47,0.60
2010,01,20,15,48,0.20
2010,01,20,15,49,0.70
2010,01,20,15,50,4.10
2010,01,20,15,51,2.10
2010,01,20,15,52,1.90
2010,01,20,15,53,3.60
2010,01,20,15,54,1.40
2010,01,20,15,55,1.50
2010,01,20,15,56,2.30
2010,01,20,15,57,2.40
2010,01,20,15,58,1.40
2010,01,20,15,59,0.10
2010,01,20,16,00,1.10
2010,01,20,16,01,0.40
2010,01,20,16,02,0.60
2010,01,20,16,03,0.10
2010,01,20,16,04,0.00
2010,01,20,16,05,0.70
2010,01,20,16,06,0.30
2010,01,20,16,07,0.50
2010,01,20,16,08,0.10
2010,01,20,16,09,0.60
2010,01,20,16,10,0.40
2010,01,20,16,11,1.80
2010,01,20,16,12,3.70
2010,01,20,16,13,0.60
2010,01,20,16,14,0.00
2010,01,20,16,15,0.60
2010,01,20,16,16,0.00
2010,01,20,16,17,1.80
2010,01,20,16,18,1.10
2010,01,20,16,19,0.20
2010,01,20,16,20,0.00
2010,01,20,16,21,1.70
2010,01,20,16,22,4.40
2010,01,20,16,23,4.00
2010,01,20,16,24,3.10
2010,01,20,16,25,1.50
2010,01,20,16,26,4.30
2010,01,20,16,27,2.60
2010,01,20,16,28,0.30
2010,01,20,16,29,1.10
2010,01,20,16,30,0.40
2010,01,20,16,31,1.00
2010,01,20,16,32,1.90
2010,01,20,16,33,2.60
2010,01,20,16,34,1.60
2010,01,20,16,35,2.30
2010,01,20,16,36,1.20
2010,01,20,16,37,1.50
2010,01,20,16,38,0.00
2010,01,20,16,39,0.30
2010,01,20,16,40,2.00
2010,01,20,16,41,2.30
2010,01,20,16,42,2.20
2010,01,20,16,43,2.60
2010,01,20,16,44,3.10
2010,01,20,16,45,3.40
2010,01,20,16,46,3.10
2010,01,20,16,47,1.10
2010,01,20,16,48,3.00
2010,01,20,16,49,2.80
2010,01,20,16,50,2.40
2010,01,20,16,51,2.60
2010,01,20,16,52,1.40
2010,01,20,16,53,1.50
2010,01,20,16,54,1.30
2010,01,20,16,55,1.70
2010,01,20,16,56,1.90
2010,01,20,16,57,2.30
2010,01,20,16,58,2.20
2010,01,20,16,59,2.10
2010,01,20,17,00,2.50
2010,01,20,17,01,2.20
2010,01,20,17,02,2.60
2010,01,20,17,03,2.20
2010,01,20,17,04,2.60
2010,01,20,17,05,2.20
2010,01,20,17,06,1.70
2010,01,20,17,07,2.00
2010,01,20,17,08,2.10
2010,01,20,17,09,2.90
2010,01,20,17,10,2.60
2010,01,20,17,11,2.60
2010,01,20,17,12,2.70
2010,01,20,17,13,2.60
2010,01,20,17,14,2.00
2010,01,20,17,15,2.30
2010,01,20,17,16,2.20
2010,01,20,17,17,1.80
2010,01,20,17,18,1.10
2010,01,20,17,19,2.70
2010,01,20,17,20,1.40
2010,01,20,17,21,1.10
2010,01,20,17,22,1.40
2010,01,20,17,23,1.30
2010,01,20,17,24,1.60
2010,01,20,17,25,2.00
2010,01,20,17,26,1.30
2010,01,20,17,27,1.50
2010,01,20,17,28,1.30
2010,01,20,17,29,1.10
2010,01,20,17,30,0.60
2010,01,20,17,31,0.80
2010,01,20,17,32,2.60
2010,01,20,17,33,3.80
2010,01,20,17,34,3.50
2010,01,20,17,35,3.00
2010,01,20,17,36,2.50
2010,01,20,17,37,2.60
2010,01,20,17,38,2.70
2010,01,20,17,39,3.10
2010,01,20,17,40,2.30
2010,01,20,17,41,2.30
2010,01,20,17,42,2.20
2010,01,20,17,43,1.10
2010,01,20,17,44,1.10
2010,01,20,17,45,1.30
2010,01,20,17,46,1.50
2010,01,20,17,47,1.40
2010,01,20,17,48,1.80
2010,01,20,17,49,1.70
2010,01,20,17,50,1.90
2010,01,20,17,51,2.70
2010,01,20,17,52,2.30
2010,01,20,17,53,2.30
2010,01,20,17,54,1.90
2010,01,20,17,55,3.20
2010,01,20,17,56,2.60
2010,01,20,17,57,2.50
2010,01,20,17,58,2.00
2010,01,20,17,59,2.80
2010,01,20,18,00,2.90
2010,01,20,18,01,3.80
2010,01,20,18,02,2.90
2010,01,20,18,03,1.70
2010,01,20,18,04,2.20
2010,01,20,18,05,2.40
2010,01,20,18,06,1.70
2010,01,20,18,07,1.20
2010,01,20,18,08,1.80
2010,01,20,18,09,2.80
2010,01,20,18,10,2.00
2010,01,20,18,11,1.70
2010,01,20,18,12,2.00
2010,01,20,18,13,2.30
2010,01,20,18,14,1.70
2010,01,20,18,15,1.80
2010,01,20,18,16,2.50
2010,01,20,18,17,2.70
2010,01,20,18,18,1.90
2010,01,20,18,19,1.50
2010,01,20,18,20,1.50
2010,01,20,18,21,1.50
2010,01,20,18,22,2.40
2010,01,20,18,23,1.60
2010,01,20,18,24,0.40
2010,01,20,18,25,1.00
2010,01,20,18,26,1.20
2010,01,20,18,27,1.10
2010,01,20,18,28,1.00
2010,01,20,18,29,0.20
2010,01,20,18,30,0.40
2010,01,20,18,31,0.10
2010,01,20,18,32,0.00
2010,01,20,18,33,0.00
2010,01,20,18,34,0.00
2010,01,20,18,35,0.00
2010,01,20,18,36,0.00
2010,01,20,18,37,0.50
2010,01,20,18,38,0.10
2010,01,20,18,39,0.00
2010,01,20,18,40,0.00
2010,01,20,18,41,0.00
2010,01,20,18,42,0.00
2010,01,20,18,43,0.10
2010,01,20,18,44,0.70
2010,01,20,18,45,1.30
2010,01,20,18,46,1.30
2010,01,20,18,47,2.60
2010,01,20,18,48,2.50
2010,01,20,18,49,3.70
2010,01,20,18,50,2.30
2010,01,20,18,51,2.70
2010,01,20,18,52,2.50
2010,01,20,18,53,1.10
2010,01,20,18,54,0.70
2010,01,20,18,55,4.10
2010,01,20,18,56,2.30
2010,01,20,18,57,2.10
2010,01,20,18,58,1.10
2010,01,20,18,59,1.80
2010,01,20,19,00,4.40
2010,01,20,19,01,3.70
2010,01,20,19,02,2.60
2010,01,20,19,03,2.10
2010,01,20,19,04,1.80
2010,01,20,19,05,0.90
2010,01,20,19,06,1.60
2010,01,20,19,07,0.80
2010,01,20,19,08,1.80
2010,01,20,19,09,3.20
2010,01,20,19,10,1.40
2010,01,20,19,11,0.70
2010,01,20,19,12,0.30
2010,01,20,19,13,2.20
2010,01,20,19,14,0.90
2010,01,20,19,15,0.00
2010,01,20,19,16,4.10
2010,01,20,19,17,2.20
2010,01,20,19,18,1.20
2010,01,20,19,19,1.80
2010,01,20,19,20,4.70
2010,01,20,19,21,3.90
2010,01,20,19,22,3.20
2010,01,20,19,23,2.90
2010,01,20,19,24,6.20
2010,01,20,19,25,0.90
2010,01,20,19,26,3.00
2010,01,20,19,27,1.40
2010,01,20,19,28,0.60
2010,01,20,19,29,3.30